Le nostre stazioni meteo in Italia

Pubblicità
Il mio iltempo24.it
Aviano, Italia (16036): Temperatura & dewpoint: 10.07.2018 20:00:00 - 16.07.2018 20:00:00 (CEST)Aviano, Italia (16036): velocità del vento: 10.07.2018 20:00:00 - 16.07.2018 20:00:00 (CEST)Aviano, Italia (16036): direzione del vento: 10.07.2018 20:00:00 - 16.07.2018 20:00:00 (CEST)Aviano, Italia (16036): reduced air pressure: 10.07.2018 20:00:00 - 16.07.2018 20:00:00 (CEST)Aviano, Italia (16036): visibility: 10.07.2018 20:00:00 - 16.07.2018 20:00:00 (CEST)
Data & Tempo tt [°C] td [°C] ff [km/h] ff [kn] dd ppp [hPa] vv [km]
16.07.2018 20:00:00 24,6 21,1 8 4 S 1009,6 30
16.07.2018 19:00:00 25,0 17,0 9 5 S - 10
16.07.2018 18:00:00 26,0 17,0 18 10 SSO - 10
16.07.2018 17:00:00 26,8 18,4 13 7 SO 1009,9 30
16.07.2018 16:00:00 27,0 19,0 11 6 SSO - 10
16.07.2018 15:00:00 27,0 18,0 9 5 SSO - 10
16.07.2018 14:00:00 27,2 18,2 5 3 OSO 1010,4 30
16.07.2018 13:00:00 27,0 19,0 5 3 S - 10
16.07.2018 12:00:00 26,0 17,0 4 2 S - 10
16.07.2018 11:00:00 24,8 17,8 8 4 S 1012,3 25
16.07.2018 10:00:00 23,0 20,0 11 6 OSO - 10
16.07.2018 09:00:00 23,0 19,0 11 6 S - 10
16.07.2018 08:00:00 20,6 18,5 8 4 N 1012,3 25
16.07.2018 07:00:00 19,0 18,0 8 4 N - 10
16.07.2018 06:00:00 19,0 18,0 8 4 O - 10
16.07.2018 05:00:00 - - - - - - -
16.07.2018 04:00:00 - - - - - - -
16.07.2018 03:00:00 - - - - - - -
16.07.2018 02:00:00 - - - - - - -
16.07.2018 01:00:00 - - - - - - -
16.07.2018 00:00:00 - - - - - - -
15.07.2018 23:00:00 - - - - - - -
15.07.2018 22:00:00 - - - - - - -
15.07.2018 21:00:00 - - - - - - -
15.07.2018 20:00:00 - - - - - - -
15.07.2018 19:00:00 - - - - - - -
15.07.2018 18:00:00 - - - - - - -
15.07.2018 17:00:00 - - - - - - -
15.07.2018 16:00:00 - - - - - - -
15.07.2018 15:00:00 - - - - - - -
15.07.2018 14:00:00 - - - - - - -
15.07.2018 13:00:00 - - - - - - -
15.07.2018 12:00:00 - - - - - - -
15.07.2018 11:00:00 - - - - - - -
15.07.2018 10:00:00 - - - - - - -
15.07.2018 09:00:00 - - - - - - -
15.07.2018 08:00:00 - - - - - - -
15.07.2018 07:00:00 - - - - - - -
15.07.2018 06:00:00 - - - - - - -
15.07.2018 05:00:00 - - - - - - -
15.07.2018 04:00:00 - - - - - - -
15.07.2018 03:00:00 - - - - - - -
15.07.2018 02:00:00 - - - - - - -
15.07.2018 01:00:00 - - - - - - -
15.07.2018 00:00:00 - - - - - - -
14.07.2018 23:00:00 - - - - - - -
14.07.2018 22:00:00 23,0 22,0 4 2 ONO - 10
14.07.2018 21:00:00 23,0 21,0 8 4 ONO - 10
14.07.2018 20:00:00 23,8 22,4 5 3 NO 1014,3 25
14.07.2018 19:00:00 24,0 22,0 11 6 NE - 10
14.07.2018 18:00:00 25,0 20,0 21 11 N - 10
14.07.2018 17:00:00 30,0 22,7 4 2 SSE 1014,7 25
14.07.2018 16:00:00 30,0 19,0 8 4 SO - 10
14.07.2018 15:00:00 30,0 19,0 5 3 S - 10
14.07.2018 14:00:00 29,2 18,3 9 5 S 1016,1 25
14.07.2018 13:00:00 29,0 18,0 9 5 SSO - 10
14.07.2018 12:00:00 28,0 18,0 11 6 SSO - 10
14.07.2018 11:00:00 26,8 17,9 8 4 S 1016,7 30
14.07.2018 10:00:00 26,0 17,0 2 1 ENE - 10
14.07.2018 09:00:00 24,0 19,0 8 4 NE - 10
14.07.2018 08:00:00 21,6 19,5 11 6 NE 1017,3 30
14.07.2018 07:00:00 21,0 20,0 5 3 NE - 10
14.07.2018 06:00:00 21,0 20,0 5 3 NE - 10
14.07.2018 05:00:00 - - - - - - -
14.07.2018 04:00:00 - - - - - - -
14.07.2018 03:00:00 - - - - - - -
14.07.2018 02:00:00 - - - - - - -
14.07.2018 01:00:00 - - - - - - -
14.07.2018 00:00:00 - - - - - - -
13.07.2018 23:00:00 - - - - - - -
13.07.2018 22:00:00 24,0 20,0 5 3 NNE - 10
13.07.2018 21:00:00 26,0 20,0 5 3 N - 10
13.07.2018 20:00:00 28,0 16,9 8 4 SSO 1015,7 25
13.07.2018 19:00:00 28,0 17,0 9 5 S - 10
13.07.2018 18:00:00 28,0 17,0 8 4 SO - 10
13.07.2018 17:00:00 28,8 17,0 8 4 SO 1015,7 25
13.07.2018 16:00:00 29,0 18,0 8 4 SSO - 10
13.07.2018 15:00:00 28,0 17,0 9 5 S - 10
13.07.2018 14:00:00 28,0 17,2 9 5 SSO 1016,7 25
13.07.2018 13:00:00 27,0 17,0 5 3 OSO - 10
13.07.2018 12:00:00 27,0 17,0 5 3 E - 10
13.07.2018 11:00:00 25,6 17,5 5 3 SE 1017,5 10
13.07.2018 10:00:00 24,0 19,0 5 3 S - 10
13.07.2018 09:00:00 23,0 19,0 5 3 ONO - 10
13.07.2018 08:00:00 20,0 18,5 5 3 NNO 1016,7 10
13.07.2018 07:00:00 - - - - - - -
13.07.2018 06:00:00 - - - - - - -
13.07.2018 05:00:00 - - - - - - -
13.07.2018 04:00:00 - - - - - - -
13.07.2018 03:00:00 - - - - - - -
13.07.2018 02:00:00 - - - - - - -
13.07.2018 01:00:00 - - - - - - -
13.07.2018 00:00:00 - - - - - - -
12.07.2018 23:00:00 - - - - - - -
12.07.2018 22:00:00 22,0 19,0 15 8 ENE - 10
12.07.2018 21:00:00 24,0 21,0 2 1 ESE - 10
12.07.2018 20:00:00 24,2 20,9 9 5 SO 1013,5 30
12.07.2018 19:00:00 25,0 19,0 15 8 SSO - 10
12.07.2018 18:00:00 - - - - - - -
12.07.2018 17:00:00 27,0 18,8 9 5 OSO 1013,6 30
12.07.2018 16:00:00 27,0 18,0 5 3 OSO - 10
12.07.2018 15:00:00 27,0 18,0 8 4 S - 10
12.07.2018 14:00:00 26,4 18,0 8 4 SSE 1014,4 30
12.07.2018 13:00:00 26,0 18,0 8 4 ESE - 10
12.07.2018 12:00:00 26,0 17,0 9 5 ENE - 10
12.07.2018 11:00:00 24,8 17,8 5 3 NE 1014,6 25
12.07.2018 10:00:00 24,0 17,0 8 4 ESE - 10
12.07.2018 09:00:00 22,0 17,0 4 2 ENE - 10
12.07.2018 08:00:00 21,0 17,2 5 3 ENE 1014,8 25
12.07.2018 07:00:00 20,0 17,0 9 5 ENE - 10
12.07.2018 06:00:00 20,0 17,0 9 5 E - 10
12.07.2018 05:00:00 - - - - - - -
12.07.2018 04:00:00 - - - - - - -
12.07.2018 03:00:00 - - - - - - -
12.07.2018 02:00:00 - - - - - - -
12.07.2018 01:00:00 - - - - - - -
12.07.2018 00:00:00 - - - - - - -
11.07.2018 23:00:00 - - - - - - -
11.07.2018 22:00:00 21,0 19,0 9 5 NE - 10
11.07.2018 21:00:00 22,0 19,0 9 5 E - 10
11.07.2018 20:00:00 23,2 17,2 11 6 E 1011,4 30
11.07.2018 19:00:00 24,0 18,0 11 6 E - 10
11.07.2018 18:00:00 24,0 17,0 8 4 E - 10
11.07.2018 17:00:00 24,4 17,4 8 4 NE 1010,8 30
11.07.2018 16:00:00 24,0 17,0 9 5 ENE - 10
11.07.2018 15:00:00 24,0 17,0 11 6 ENE - 10
11.07.2018 14:00:00 23,8 16,8 13 7 ENE 1011,4 30
11.07.2018 13:00:00 24,0 17,0 15 8 E - 10
11.07.2018 12:00:00 24,0 17,0 13 7 ENE - 10
11.07.2018 11:00:00 23,0 16,1 9 5 ENE 1012,2 25
11.07.2018 10:00:00 21,0 16,0 13 7 NE - 10
11.07.2018 09:00:00 21,0 17,0 9 5 NNE - 10
11.07.2018 08:00:00 19,8 18,1 9 5 E 1012,2 25
11.07.2018 07:00:00 18,0 16,0 9 5 NNE - 10
11.07.2018 06:00:00 18,0 17,0 5 3 ENE - 10
11.07.2018 05:00:00 - - - - - - -
11.07.2018 04:00:00 - - - - - - -
11.07.2018 03:00:00 - - - - - - -
11.07.2018 02:00:00 - - - - - - -
11.07.2018 01:00:00 - - - - - - -
11.07.2018 00:00:00 - - - - - - -
10.07.2018 23:00:00 - - - - - - -
10.07.2018 22:00:00 21,0 19,0 22 12 N - 10
10.07.2018 21:00:00 21,0 19,0 16 9 N - 10
10.07.2018 20:00:00 24,0 21,7 21 11 SO 1011,5 12

tt = Temperatura
td = dewpoint
ff = velocità del vento
dd = direzione del vento
ppp = reduced air pressure
vv = visibility

Stazioni seguenti

WeatherPro
AMSI
MeteoEarth